Regional Weather Roundup
Issued by NWS

Home | Current Version | Previous Version | Text Only | Print | Product List | Glossary On
Versions: 1 2 3 4 5 6 7 8 9 10 11 12 13 14 15 16 17 18 19 20 21 22 23 24 25 26 27 28 29 30 31 32 33 34 35 36 37 38 39 40 41 42 43 44 45 46 47 48 49 50
000
ASUS43 KDMX 281701
RWRIA

WEATHER ROUNDUP FOR IOWA
NATIONAL WEATHER SERVICE DES MOINES IA
1200 PM CDT WED JUN 28 2017

NOTE: "FAIR" INDICATES FEW OR NO CLOUDS BELOW 12,000 FEET WITH NO
SIGNIFICANT WEATHER AND/OR OBSTRUCTIONS TO VISIBILITY.

* - THESE STATIONS ARE NOT NWS STATIONS...THUS NOT UNDER NWS
QUALITY CONTROL.  THEY ALSO DO NOT REPORT WEATHER SUCH
AS PRECIPITATION OR FOG.

IAZ001>003-012>014-020>022-031>034-043>046-281800-
   NORTHWEST IOWA

CITY           SKY/WX    TMP DP  RH WIND       PRES   REMARKS
CARROLL *      PTSUNNY   81  72  74 SW22G33   29.66F HX  84
CHEROKEE *     CLOUDY    76  71  87 SW15G21   29.65F
DENISON *      MOSUNNY   79  72  78 SW9G21    29.68F HX  82
LE MARS *      MOSUNNY   79  68  69 SW14G21   29.63F HX  81
ORANGE CITY *  SUNNY     79  68  69 SW13G22   29.63S HX  81
SHELDON *      SUNNY     79  64  61 SW16G22   29.61F HX  81
SIOUX CITY     MOSUNNY   80  73  79 W10       29.64F HX  84
SPENCER        PTSUNNY   77  68  73 SW20G28   29.63F
STORM LAKE *   RAIN      70  68  94 SW13G22   29.67R VSB 1
$$

IAZ055>058-069>071-079>083-090>094-281800-
   SOUTHWEST IOWA

CITY           SKY/WX    TMP DP  RH WIND       PRES   REMARKS
ATLANTIC *     SUNNY     81  70  69 S22       29.69F HX  84
AUDUBON *      CLOUDY    81  72  74 S18G26    29.70F HX  84
CLARINDA *     CLOUDY    79  72  78 S14G22    29.76R HX  82
COUNCIL BLFS * SUNNY     79  73  83 S20       29.70S HX  82
CRESTON *      PTSUNNY   77  70  78 S23       29.76R
HARLAN  *      CLOUDY    79  72  78 SW21G26   29.72S HX  82
LAMONI         CLOUDY    76  69  79 S16       29.78S
RED OAK *      PTSUNNY   79  72  78 SW18G25   29.72S HX  82
SHENANDOAH *   PTSUNNY   81  72  74 SW17G24   29.73R HX  84
$$

IAZ047>049-059>061-072>074-084-281800-
   CENTRAL IOWA

CITY           SKY/WX    TMP DP  RH WIND       PRES   REMARKS
AMES           CLOUDY    80  70  71 SW28G36   29.68F HX  83
ANKENY *       CLOUDY    81  68  65 SW20G32   29.71F HX  83
BOONE *        CLOUDY    79  68  69 SW20G29   29.68F HX  81
CHARITON *     PTSUNNY   77  68  73 S18G30    29.77S
DES MOINES     CLOUDY    81  68  64 SW24G33   29.70F HX  84
GRINNELL*      MOSUNNY   77  66  67 S18G26    29.75S
KNOXVILLE *    CLOUDY    77  68  73 SW23G36   29.72F
MARSHALLTOWN   MOSUNNY   79  65  62 SW18G26   29.70F HX  81
NEWTON *       MOSUNNY   79  68  69 SW24G36   29.72F HX  81
PELLA *        CLOUDY    78  67  68 SW16G26   29.76R HX  80
PERRY *          N/A     80  71  74 SW20G30   29.69F HX  83
$$

IAZ004>006-015-016-023>025-035-036-281800-
   NORTH CENTRAL IOWA

CITY           SKY/WX    TMP DP  RH WIND       PRES   REMARKS
ALGONA *       CLOUDY    72  70  94 SW15G28   29.66S
CLARION *        N/A     75  72  88 SW16G25   29.68R
ESTHERVILLE    CLOUDY    77  68  73 SW18G30   29.60F
FORT DODGE *   CLOUDY    72  66  83 SW9G18    29.69R THUNDER
MASON CITY     CLOUDY    76  66  71 SW17G28   29.68S
FOREST CITY *  CLOUDY    75  61  60 SW13G23   29.66R
WEBSTER CITY * CLOUDY    75  70  83 SW14G22   29.66F
IOWA FALLS *     N/A     78  67  68 SW24G33   29.70F HX  80
$$

IAZ007>011-017>019-026>030-037>042-050>054-066-281800-
   NORTHEAST IOWA

CITY           SKY/WX    TMP DP  RH WIND       PRES   REMARKS
CEDAR RAPIDS   PTSUNNY   74  68  81 S17G28    29.76S
CHARLES CITY * PTSUNNY   70  70 100 SE17G23   29.71S
CLINTON *      CLOUDY    70  66  87 SE17      29.82F
DECORAH *      CLOUDY    68  64  88 S15G25    29.71F
DUBUQUE        CLOUDY    66  64  93 S17G26    29.79F
MONTICELLO *   CLOUDY    68  66  94 SE15      29.78F
OELWEIN *      CLOUDY    72  68  88 S21G29    29.74S
WATERLOO       LGT RAIN  73  66  78 S14       29.70F
$$

IAZ064-065-067-068-078-281800-
   EAST CENTRAL IOWA

CITY           SKY/WX    TMP DP  RH WIND       PRES   REMARKS
IOWA CITY      CLOUDY    77  67  71 S17G30    29.79R
MT. PLEASANT * CLOUDY    76  65  68 S23       29.83F
MUSCATINE *    CLOUDY    73  66  78 S17G30    29.81R
QUAD CITIES    PTSUNNY   73  66  78 S16G25    29.78F
$$

IAZ062-063-075>077-085>089-095>099-281800-
   SOUTHEAST IOWA

CITY           SKY/WX    TMP DP  RH WIND       PRES   REMARKS
BURLINGTON     CLOUDY    75  67  76 S13       29.86R
FAIRFIELD *    MOSUNNY   77  64  65 S18G29    29.79F
FORT MADISON * CLOUDY    75  66  73 S10       29.87R
KEOKUK *       PTSUNNY   77  66  69 SW21G26   29.84R
OSKALOOSA *      N/A     78  68  71 S17G26    29.78R
OTTUMWA        CLOUDY    78  67  68 S16G28    29.77F HX  80
WASHINGTON *   CLOUDY    77  68  73 S22G29    29.79F
$$

ABBREVIATIONS USED IN REMARKS
   TC - TEMPERATURES IN CELSIUS
  WCI - WIND CHILL INDEX
   HX - HEAT INDEX
  VSB - VISIBILITY
$$





USA.gov is the U.S. government's official web portal to all federal, state and local government web resources and services.